FW4407 Weather Reports


Display with metric or nautical units.
time (UTC)temp
F
wind
direction
speed
MPH
gust
MPH
rain 1hr
in
rain 24hr
in
rain mn
in
humidity
%
barometer
mb
20260503010521 47 3 19.0 30.0 0.00 0.05 0.02 73 1013.8
20260503005526 47 9 6.0 10.0 0.00 0.05 0.02 72 1014.2
20260503004530 47 2 4.0 10.0 0.00 0.05 0.02 72 1014.2
20260503003519 46 6 3.0 8.0 0.00 0.05 0.02 70 1014.0
20260503002523 46 354 6.0 13.0 0.00 0.05 0.02 72 1014.2
20260503001529 45 351 1.0 10.0 0.00 0.05 0.02 74 1014.2
20260503000516 45 349 1.0 8.0 0.00 0.05 0.02 76 1014.4
20260502235522 46 339 1.0 8.0 0.00 0.05 0.02 78 1014.4
20260502234527 46 303 2.0 10.0 0.00 0.05 0.02 78 1014.6
20260502233531 46 342 3.0 13.0 0.00 0.05 0.02 78 1014.8
20260502232519 46 2 3.0 8.0 0.02 0.05 0.02 77 1015.1
20260502231524 46 351 4.0 10.0 0.02 0.05 0.02 81 1014.9
20260502230529 46 0.0 0.0 0.02 0.05 0.02 82 1015.1
20260502225517 47 0.0 0.0 0.02 0.05 0.02 81 1015.1
20260502224542 47 81 1.0 8.0 0.02 0.05 0.02 80 1015.1
20260502223528 48 2 5.0 13.0 0.02 0.05 0.02 77 1015.4
20260502222515 49 20 1.0 8.0 0.00 0.03 0.00 73 1015.2
20260502221520 50 21 3.0 8.0 0.00 0.03 0.00 71 1015.2
20260502220525 50 3 5.0 10.0 0.00 0.03 0.00 60 1015.4
20260502215528 50 0.0 0.0 0.00 0.03 0.00 61 1015.4
20260502214537 50 94 1.0 5.0 0.00 0.03 0.00 60 1015.5
20260502213521 50 24 2.0 8.0 0.00 0.03 0.00 58 1015.5
20260502212526 50 7 1.0 5.0 0.00 0.03 0.00 58 1015.4
20260502211552 50 8 7.0 13.0 0.00 0.03 0.00 57 1015.5
20260502210520 50 6 3.0 10.0 0.00 0.03 0.00 56 1015.4
20260502205524 50 4 3.0 10.0 0.00 0.03 0.03 55 1015.4
20260502204529 50 47 1.0 5.0 0.00 0.03 0.03 53 1015.5
20260502203517 51 5 1.0 5.0 0.00 0.03 0.03 52 1015.7
20260502202522 51 0.0 0.0 0.00 0.03 0.03 52 1015.7
20260502201527 51 6 1.0 8.0 0.00 0.03 0.03 52 1015.8
20260502200515 51 24 2.0 8.0 0.00 0.03 0.03 51 1015.7
20260502195521 51 15 2.0 5.0 0.00 0.03 0.03 51 1015.8
20260502194526 51 11 3.0 10.0 0.00 0.03 0.03 50 1015.9
20260502193530 51 9 4.0 8.0 0.00 0.03 0.03 50 1015.8
20260502192518 51 13 1.0 8.0 0.00 0.03 0.03 50 1015.7
20260502191543 51 29 2.0 5.0 0.00 0.03 0.03 50 1015.7
20260502190528 51 25 4.0 10.0 0.00 0.03 0.03 50 1015.6
20260502185517 51 16 2.0 8.0 0.00 0.03 0.03 50 1015.6
20260502184521 51 18 3.0 8.0 0.00 0.03 0.03 50 1015.7
20260502183526 51 24 3.0 8.0 0.00 0.03 0.03 49 1015.7
20260502182532 51 359 1.0 5.0 0.00 0.03 0.03 50 1015.5
20260502181519 51 26 3.0 10.0 0.00 0.03 0.03 50 1015.2
20260502180524 51 17 2.0 10.0 0.00 0.03 0.03 50 1015.4
20260502170520 53 12 4.0 13.0 0.00 0.03 0.03 47 1015.3
20260502163518 54 17 4.0 10.0 0.00 0.03 0.03 46 1015.2
20260502162543 54 13 7.0 15.0 0.00 0.03 0.03 45 1015.3
20260502161528 54 15 5.0 13.0 0.00 0.03 0.03 44 1015.2
20260502160536 54 21 7.0 15.0 0.00 0.03 0.03 44 1015.4
20260502151524 55 25 8.0 20.0 0.00 0.03 0.03 45 1015.6
20260502150529 54 33 6.0 17.0 0.00 0.03 0.03 44 1015.5
20260502130541 54 18 11.0 25.0 0.00 0.03 0.03 42 1015.9
20260502123519 54 18 13.0 28.0 0.00 0.03 0.03 45 1016.2
20260502122524 55 27 11.0 23.0 0.00 0.03 0.03 45 1016.2
20260502121529 55 4 9.0 20.0 0.00 0.03 0.03 43 1016.0
20260502120517 55 21 12.0 28.0 0.00 0.03 0.03 44 1016.0
20260502115522 54 10 10.0 25.0 0.00 0.03 0.03 45 1016.0
20260502114527 54 16 12.0 25.0 0.00 0.03 0.03 47 1016.2
20260502113515 54 24 9.0 20.0 0.00 0.03 0.03 48 1016.2
20260502112520 54 357 12.0 25.0 0.00 0.03 0.03 48 1016.2
20260502111525 53 7 3.0 13.0 0.00 0.03 0.03 51 1016.2
20260502110550 53 14 5.0 10.0 0.00 0.03 0.03 55 1016.4
20260502105518 53 42 5.0 15.0 0.00 0.03 0.03 55 1016.5
20260502104523 53 34 6.0 20.0 0.00 0.03 0.03 53 1016.6
20260502103528 53 93 7.0 17.0 0.00 0.03 0.03 54 1016.8
20260502102516 53 51 6.0 15.0 0.00 0.03 0.03 55 1016.6
20260502101521 52 1 8.0 23.0 0.00 0.03 0.03 55 1016.9
20260502100526 52 27 7.0 15.0 0.00 0.03 0.03 59 1016.9
20260502091517 52 27 6.0 17.0 0.00 0.03 0.03 59 1016.7
20260502090522 52 11 8.0 17.0 0.00 0.03 0.03 59 1016.8
20260502071526 53 20 7.0 25.0 0.00 0.03 0.03 59 1016.6
20260502070531 53 30 6.0 13.0 0.00 0.03 0.03 58 1016.7
20260502065519 52 20 6.0 25.0 0.00 0.03 0.03 57 1016.4
20260502064524 52 73 7.0 23.0 0.00 0.03 0.03 59 1016.4
20260502063529 53 37 8.0 23.0 0.00 0.03 0.03 60 1016.6
20260502062517 53 22 12.0 23.0 0.00 0.03 0.03 59 1016.4
20260502061522 53 20 7.0 20.0 0.00 0.03 0.03 59 1016.4
20260502060527 52 91 8.0 23.0 0.00 0.03 0.03 59 1016.4
20260502055531 52 59 8.0 23.0 0.00 0.03 0.03 58 1016.4
20260502054520 51 24 6.0 15.0 0.00 0.03 0.03 62 1016.3
20260502053525 51 15 5.0 17.0 0.00 0.03 0.03 65 1016.5
20260502052530 51 9 8.0 17.0 0.00 0.03 0.03 65 1016.5
20260502051538 51 4 5.0 10.0 0.00 0.03 0.03 66 1016.5
20260502050523 50 12 7.0 20.0 0.00 0.03 0.03 66 1016.3
20260502045548 50 21 5.0 15.0 0.00 0.03 0.03 68 1016.4
20260502044536 50 2 7.0 17.0 0.00 0.03 0.03 68 1016.5
20260502043541 50 7 7.0 17.0 0.00 0.03 0.03 69 1016.5
20260502042526 50 34 5.0 15.0 0.00 0.03 0.03 70 1016.5
20260502041530 49 6 5.0 15.0 0.03 0.03 0.03 71 1016.5
20260502040519 49 22 3.0 15.0 0.03 0.03 0.03 73 1016.5
20260502035523 49 41 3.0 10.0 0.03 0.03 0.03 73 1016.5
20260502034528 49 68 3.0 10.0 0.03 0.04 0.03 77 1016.3
20260502033517 50 6 3.0 10.0 0.03 0.04 0.03 79 1016.2
20260502032542 50 4 3.0 10.0 0.03 0.04 0.03 77 1016.2
20260502031547 51 108 2.0 8.0 0.00 0.01 0.00 73 1016.2
20260502030531 51 64 4.0 13.0 0.00 0.01 0.00 71 1016.2
20260502025518 51 15 3.0 10.0 0.00 0.01 0.00 71 1016.2
20260502024523 51 63 3.0 10.0 0.00 0.01 0.00 69 1016.3
20260502023527 51 14 3.0 10.0 0.00 0.01 0.00 68 1016.2
20260502022515 51 14 5.0 10.0 0.00 0.01 0.00 68 1016.1
20260502021521 51 93 2.0 8.0 0.00 0.01 0.00 68 1016.2
20260502020525 51 358 2.0 8.0 0.00 0.01 0.00 67 1016.2
20260502015530 51 37 2.0 8.0 0.00 0.01 0.00 68 1016.3
20260502014519 51 25 2.0 8.0 0.00 0.01 0.00 69 1016.4
20260502013524 51 22 3.0 10.0 0.00 0.01 0.00 70 1016.3
20260502012529 51 13 3.0 13.0 0.00 0.01 0.00 70 1016.4
20260502011516 51 15 4.0 13.0 0.00 0.01 0.00 70 1016.5